Tiempo atmosférico en la estación meteorológica de Arico, Santa Cruz de Tenerife (418 m.)



Fecha
DESCASC
Temp. máxima en grados centígrados (hora)
DESCASC
Temp. mínima en grados centígrados (hora)
DESCASC
Temp. media en grados centígrados
DESCASC
Racha de viento máxima en m/sg (hora)
DESCASC
Velocidad máxima media en intervalos de 10 minutos(hora)
DESCASC
Precipitaciones diarias en mm
DESCASC
Precipitaciones de 00:00 a 06:00 en mm
DESCASC
Precipitaciones de 06:00 a 12:00 en mm
DESCASC
Precipitaciones de 12:00 a 18:00 en mm
DESCASC
Precipitaciones de 18:00 a 24:00 en mm
DESCASC
22-01-2020 18.3 (12:10) 9.7 (05:40) 14 6.67 (12:40) 3.89 (07:10) 0 0 0 0 0
21-01-2020 15 (11:40) 10 (23:59) 12.5 8.33 (00:50) 5 (06:40) 2 0 0 0.4 1.6
20-01-2020 17.4 (15:20) 12.9 (04:30) 15.1 9.44 (14:50) 6.11 (05:20) 0 0 0 0 0
19-01-2020 21.8 (12:50) 14.1 (00:00) 17.9 11.67 (23:30) 7.78 (23:20) 0 0 0 0 0
18-01-2020 19.7 (12:00) 11.8 (00:00) 15.8 9.72 (12:50) 5.83 (14:20) 0 0 0 0 0
17-01-2020 20 (12:10) 12.3 (00:00) 16.2 8.33 (17:10) 5.28 (04:00) 0 0 0 0 0
16-01-2020 20.8 (12:50) 12.4 (00:00) 16.6 7.22 (02:30) 5 (04:00) 0 0 0 0 0
15-01-2020 20.7 (13:10) 12.4 (00:00) 16.6 7.22 (13:50) 5.28 (04:10) 0 0 0 0 0
14-01-2020 19.7 (13:10) 12.1 (00:00) 15.9 9.72 (12:20) 5.28 (01:50) 0 0 0 0 0
13-01-2020 21.6 (13:40) 11.8 (00:00) 16.7 7.78 (23:50) 4.72 (23:50) 0 0 0 0 0
12-01-2020 18.2 (14:10) 11.8 (23:59) 15 13.33 (07:10) 8.33 (11:00) 0 0 0 0 0
11-01-2020 19.1 (12:50) 12.3 (00:00) 15.7 15 (16:50) 7.5 (15:20) 0 0 0 0 0
10-01-2020 18.3 (11:30) 13.7 (00:00) 16 17.22 (15:50) 10.28 (17:20) 0 0 0 0 0
09-01-2020 18.7 (13:50) 12.5 (00:00) 15.6 15.28 (12:50) 8.61 (12:10) 0 0 0 0 0
08-01-2020 18.8 (12:50) 12.2 (00:00) 15.5 12.78 (10:50) 8.61 (14:20) 0 0 0 0 0
07-01-2020 17.6 (14:30) 12.5 (00:00) 15.1 15.83 (02:50) 10 (04:20) 0.2 0 0.2 0 0
06-01-2020 18.9 (13:40) 12.3 (00:00) 15.6 14.72 (12:40) 9.17 (12:20) 0 0 0 0 0
05-01-2020 19 (11:50) 12.6 (00:00) 15.8 11.11 (12:00) 7.5 (10:30) 0 0 0 0 0
04-01-2020 18.6 (11:40) 12 (00:00) 15.3 11.39 (13:10) 7.22 (12:10) 0 0 0 0 0
03-01-2020 20.2 (14:30) 11.6 (00:00) 15.9 11.94 (20:00) 7.78 (19:30) 0 0 0 0 0
02-01-2020 19.7 (12:10) 11.7 (00:00) 15.7 9.44 (18:50) 5 (18:20) 0 0 0 0 0
01-01-2020 20.3 (12:00) 12 (00:00) 16.1 8.33 (14:40) 5 (13:40) 0 0 0 0 0
31-12-2019 20.5 (14:10) 13.1 (00:00) 16.8 8.06 (12:50) 5 (12:00) 0 0 0 0 0
30-12-2019 -- (--) -- (--) -- -- (--) -- (--) -- 0 0 -- 0
29-12-2019 26 (13:20) 16.4 (00:00) 21.2 6.94 (06:50) 5.28 (06:40) 0 0 0 0 0
28-12-2019 27.2 (13:10) 17.2 (00:00) 22.2 6.39 (05:30) 4.72 (21:10) 0 0 0 0 0
27-12-2019 27 (12:40) 15.7 (00:00) 21.3 6.94 (11:20) 5 (11:20) 0 0 0 0 0
26-12-2019 23.4 (15:00) 15.6 (00:00) 19.5 12.22 (09:50) 7.5 (11:30) 0 0 0 0 0
25-12-2019 27.2 (12:10) 16.5 (00:00) 21.9 6.67 (01:50) 4.72 (01:00) 0 0 0 0 0

Gráficas

Temp. máximas Temp. mínimas Temp. medias Precipitaciones Rachas de viento máximas Velocidades máximas media en intervalos de 10 minutos

Datos horarios

Fecha y hora oficial Temperatura (ºC) Velocidad del viento (km/h) Dirección del viento Racha (km/h) Dirección de racha Precipitación (mm) Presión (hPa) Tendencia (hPa) Humedad (%)
2020-01-23 23:00:00 12.7 9 Noroeste 14 Noroeste 0 -- -- 79
2020-01-23 22:00:00 12.8 8 Noroeste 11 Noroeste 0 -- -- 84
2020-01-23 21:00:00 13.1 5 Noroeste 8 Noroeste 0 -- -- 86
2020-01-23 20:00:00 13.2 7 Noroeste 11 Noroeste 0 -- -- 88
2020-01-23 19:00:00 14 3 Nordeste 6 Este 0.6 -- -- 84
2020-01-23 18:00:00 14.7 2 Este 5 Este 0 -- -- 75
2020-01-23 17:00:00 14.9 4 Noroeste 9 Norte 0 -- -- 74
2020-01-23 16:00:00 14.5 0 Calma 15 Sudeste 0.2 -- -- 76
2020-01-23 15:00:00 15 8 Sudeste 14 Sudeste 0 -- -- 71
2020-01-23 14:00:00 15.4 4 Sudeste 14 Sudeste 0 -- -- 69
2020-01-23 13:00:00 15.7 8 Este 26 Este 0 -- -- 66
2020-01-23 12:00:00 17.4 11 Sudeste 24 Este 0 -- -- 62
2020-01-23 11:00:00 17.3 9 Este 19 Nordeste 0 -- -- 64
2020-01-23 10:00:00 16 6 Este 12 Este 0 -- -- 64
2020-01-23 09:00:00 12.7 5 Norte 17 Noroeste 0 -- -- 68
2020-01-23 08:00:00 10.6 12 Noroeste 16 Noroeste 0 -- -- 60
2020-01-23 07:00:00 10.8 13 Noroeste 17 Noroeste 0 -- -- 57
2020-01-23 06:00:00 11.1 9 Noroeste 16 Noroeste 0 -- -- 57
2020-01-23 05:00:00 11.1 11 Noroeste 19 Noroeste 0 -- -- 54
2020-01-23 04:00:00 11.2 8 Noroeste 18 Noroeste 0 -- -- 56
2020-01-23 03:00:00 11.4 12 Noroeste 17 Oeste 0 -- -- 54
2020-01-23 02:00:00 11.2 13 Noroeste 18 Noroeste 0 -- -- 53
2020-01-23 01:00:00 11.3 12 Noroeste 18 Noroeste 0 -- -- 54
2020-01-23 00:00:00 11.1 13 Noroeste 17 Noroeste 0 -- -- 58
2020-01-22 23:00:00 11.5 13 Noroeste 18 Noroeste 0 -- -- 56
2020-01-22 22:00:00 11.6 12 Noroeste 17 Noroeste 0 -- -- 56
2020-01-22 21:00:00 11.8 12 Noroeste 18 Noroeste 0 -- -- 57
2020-01-22 20:00:00 11.8 12 Noroeste 17 Noroeste 0 -- -- 60
2020-01-22 19:00:00 13.5 4 Sudoeste 14 Oeste 0 -- -- 70
2020-01-22 18:00:00 14.1 3 Noroeste 8 Sur 0 -- -- 68
2020-01-22 17:00:00 14.2 2 Oeste 8 Sudeste 0 -- -- 64
2020-01-22 16:00:00 14.6 6 Sudeste 14 Sudeste 0 -- -- 63
2020-01-22 15:00:00 15.2 7 Sudeste 15 Sudeste 0 -- -- 63
2020-01-22 14:00:00 15.7 9 Sudeste 18 Sur 0 -- -- 55
2020-01-22 13:00:00 17.1 11 Sur 24 Este 0 -- -- 52
2020-01-22 12:00:00 18.1 7 Sudeste 19 Sudeste 0 -- -- 47
2020-01-22 11:00:00 17.1 11 Sudeste 20 Sudeste 0 -- -- 49
2020-01-22 10:00:00 14.6 9 Sudoeste 14 Sudoeste 0 -- -- 48
2020-01-22 09:00:00 11.6 3 Sudoeste 18 Noroeste 0 -- -- 59
2020-01-22 08:00:00 9.9 14 Noroeste 19 Noroeste 0 -- -- 62
2020-01-22 07:00:00 9.9 13 Noroeste 18 Noroeste 0 -- -- 65
2020-01-22 06:00:00 9.8 6 Noroeste 17 Oeste 0 -- -- 71
2020-01-22 05:00:00 10.1 11 Noroeste 19 Noroeste 0 -- -- 72
2020-01-22 04:00:00 10.1 12 Noroeste 19 Noroeste 0 -- -- 76
2020-01-22 03:00:00 10.3 8 Noroeste 13 Noroeste 0 -- -- 77
2020-01-22 02:00:00 11 6 Oeste 17 Noroeste 0 -- -- 74
2020-01-22 01:00:00 10.1 12 Noroeste 17 Oeste 0 -- -- 81
2020-01-22 00:00:00 10 7 Noroeste 14 Noroeste 0 -- -- 82
2020-01-21 23:00:00 10.3 8 Noroeste 13 Norte 0 -- -- 83
2020-01-21 22:00:00 10.6 6 Norte 12 Noroeste 0 -- -- 83
2020-01-21 21:00:00 11.3 5 Norte 9 Noroeste 0 -- -- 87
2020-01-21 20:00:00 11.3 4 Oeste 6 Noroeste 0.2 -- -- 92
2020-01-21 19:00:00 11 3 Noroeste 11 Nordeste 1.4 -- -- 93
2020-01-21 18:00:00 11.9 4 Sudeste 10 Sur 0.4 -- -- 91
2020-01-21 17:00:00 12.2 8 Este 13 Nordeste 0 -- -- 86
2020-01-21 16:00:00 13.3 8 Oeste 11 Oeste 0 -- -- 80
2020-01-21 15:00:00 13.5 5 Nordeste 22 Nordeste 0 -- -- 75
2020-01-21 14:00:00 14.4 12 Nordeste 19 Nordeste 0 -- -- 66
2020-01-21 13:00:00 14.8 9 Este 17 Este 0 -- -- 62
2020-01-21 12:00:00 14.8 12 Este 18 Este 0 -- -- 64
2020-01-21 11:00:00 14.4 11 Noroeste 17 Noroeste 0 -- -- 63
2020-01-21 10:00:00 13.9 8 Noroeste 14 Noroeste 0 -- -- 68
2020-01-21 09:00:00 13.3 9 Noroeste 14 Oeste 0 -- -- 73
2020-01-21 08:00:00 13.2 9 Oeste 25 Sudoeste 0 -- -- 74
2020-01-21 07:00:00 13.2 14 Sudoeste 29 Sudoeste 0 -- -- 74
2020-01-21 06:00:00 12.7 5 Oeste 13 Oeste 0 -- -- 80
2020-01-21 05:00:00 12.8 4 Oeste 6 Oeste 0 -- -- 76
2020-01-21 04:00:00 13 0 Calma 6 Este 0 -- -- 77
2020-01-21 03:00:00 13.1 2 Este 10 Noroeste 0 -- -- 77
2020-01-21 02:00:00 13.1 4 Este 22 Sudeste 0 -- -- 79
2020-01-21 01:00:00 13.4 13 Nordeste 30 Este 0 -- -- 77
2020-01-21 00:00:00 14.2 6 Sur 9 Sur 0 -- -- 66
2020-01-20 23:00:00 14.4 3 Sur 5 Sudoeste 0 -- -- 65
2020-01-20 22:00:00 14.3 2 Oeste 7 Noroeste 0 -- -- 66
2020-01-20 21:00:00 14.3 5 Nordeste 20 Nordeste 0 -- -- 67
2020-01-20 20:00:00 14.8 6 Este 12 Este 0 -- -- 65
2020-01-20 19:00:00 15 7 Este 23 Este 0 -- -- 67
2020-01-20 18:00:00 16 9 Este 22 Sudeste 0 -- -- 65
2020-01-20 17:00:00 16.9 7 Sudoeste 20 Sudeste 0 -- -- 60
2020-01-20 16:00:00 17 9 Sudeste 29 Este 0 -- -- 60
2020-01-20 15:00:00 16.8 13 Sudeste 34 Este 0 -- -- 60
2020-01-20 14:00:00 16.7 4 Este 30 Este 0 -- -- 62
2020-01-20 13:00:00 15.9 18 Este 34 Nordeste 0 -- -- 66
2020-01-20 12:00:00 16.1 14 Este 31 Este 0 -- -- 68
2020-01-20 11:00:00 16.5 9 Este 17 Nordeste 0 -- -- 65
2020-01-20 10:00:00 15 5 Nordeste 15 Nordeste 0 -- -- 71
2020-01-20 09:00:00 14 6 Este 13 Este 0 -- -- 78
2020-01-20 08:00:00 13.7 6 Sudoeste 13 Oeste 0 -- -- 80
2020-01-20 07:00:00 13.3 10 Oeste 22 Oeste 0 -- -- 81
2020-01-20 06:00:00 13.3 14 Oeste 30 Oeste 0 -- -- 82
2020-01-20 05:00:00 13.1 18 Sudoeste 23 Sudoeste 0 -- -- 81
2020-01-20 04:00:00 13.2 11 Oeste 17 Este 0 -- -- 85
2020-01-20 03:00:00 14 11 Nordeste 26 Norte 0 -- -- 83
2020-01-20 02:00:00 14.7 18 Nordeste 27 Nordeste 0 -- -- 91
2020-01-20 01:00:00 14.4 12 Nordeste 23 Nordeste 0 -- -- 87
2020-01-20 00:00:00 14.5 17 Nordeste 42 Nordeste 0 -- -- 81
2020-01-19 23:00:00 14.3 27 Nordeste 40 Nordeste 0 -- -- 78
2020-01-19 22:00:00 14.1 21 Nordeste 35 Nordeste 0 -- -- 86
2020-01-19 21:00:00 14.5 21 Nordeste 34 Nordeste 0 -- -- 87
2020-01-19 20:00:00 14.4 14 Nordeste 30 Nordeste 0 -- -- 86
2020-01-19 19:00:00 14.7 13 Nordeste 26 Nordeste 0 -- -- 86
2020-01-19 18:00:00 15.7 17 Nordeste 30 Nordeste 0 -- -- 79
2020-01-19 17:00:00 17.3 14 Nordeste 28 Nordeste 0 -- -- 68
2020-01-19 16:00:00 17.8 18 Nordeste 31 Nordeste 0 -- -- 70
2020-01-19 15:00:00 18.5 21 Nordeste 31 Este 0 -- -- 66
2020-01-19 14:00:00 21.2 19 Este 31 Este 0 -- -- 46
2020-01-19 13:00:00 21.7 18 Nordeste 31 Este 0 -- -- 35
2020-01-19 12:00:00 21.4 19 Nordeste 28 Este 0 -- -- 35
2020-01-19 11:00:00 21.3 18 Nordeste 31 Nordeste 0 -- -- 32
2020-01-19 10:00:00 20.2 18 Nordeste 28 Nordeste 0 -- -- 20
2020-01-19 09:00:00 17.8 14 Nordeste 24 Nordeste 0 -- -- 19
2020-01-19 08:00:00 15.7 12 Norte 27 Nordeste 0 -- -- 20
2020-01-19 07:00:00 15.4 14 Norte 24 Norte 0 -- -- 21
2020-01-19 06:00:00 15.2 13 Norte 23 Norte 0 -- -- 22
2020-01-19 05:00:00 15 12 Norte 23 Nordeste 0 -- -- 23
2020-01-19 04:00:00 15.1 13 Norte 24 Nordeste 0 -- -- 23
2020-01-19 03:00:00 14.6 13 Nordeste 24 Nordeste 0 -- -- 25
2020-01-19 02:00:00 14.6 10 Nordeste 19 Nordeste 0 -- -- 23
2020-01-19 01:00:00 15.2 11 Norte 31 Nordeste 0 -- -- 26
2020-01-19 00:00:00 15.7 17 Nordeste 32 Nordeste 0 -- -- 24
2020-01-18 23:00:00 15.7 18 Nordeste 28 Nordeste 0 -- -- 26
2020-01-18 22:00:00 15.8 18 Nordeste 31 Nordeste 0 -- -- 27
2020-01-18 21:00:00 15.2 14 Nordeste 26 Nordeste 0 -- -- 30
2020-01-18 20:00:00 14.9 10 Norte 19 Norte 0 -- -- 36
2020-01-18 19:00:00 14.5 10 Nordeste 26 Nordeste 0 -- -- 72
2020-01-18 18:00:00 16.1 18 Nordeste 28 Nordeste 0 -- -- 63
2020-01-18 17:00:00 18 18 Nordeste 27 Nordeste 0 -- -- 59
2020-01-18 16:00:00 19.1 14 Nordeste 30 Este 0 -- -- 56
2020-01-18 15:00:00 19.4 17 Nordeste 30 Este 0 -- -- 53
2020-01-18 14:00:00 19.2 18 Nordeste 29 Este 0 -- -- 55
2020-01-18 13:00:00 19.4 19 Este 35 Nordeste 0 -- -- 57
2020-01-18 12:00:00 19.7 14 Nordeste 26 Este 0 -- -- 49
2020-01-18 11:00:00 19.2 17 Este 27 Este 0 -- -- 45
2020-01-18 10:00:00 17.7 16 Nordeste 27 Nordeste 0 -- -- 44
2020-01-18 09:00:00 15.8 15 Nordeste 27 Nordeste 0 -- -- 31
2020-01-18 08:00:00 14.1 9 Norte 15 Norte 0 -- -- 23
2020-01-18 07:00:00 14.1 7 Norte 14 Norte 0 -- -- 21
2020-01-18 06:00:00 14.1 5 Norte 13 Noroeste 0 -- -- 21
2020-01-18 05:00:00 13.1 8 Noroeste 20 Noroeste 0 -- -- 26
2020-01-18 04:00:00 11.9 11 Nordeste 20 Nordeste 0 -- -- 69
2020-01-18 03:00:00 13.4 5 Norte 12 Noroeste 0 -- -- 43
2020-01-18 02:00:00 12.6 5 Nordeste 10 Nordeste 0 -- -- 59
2020-01-18 01:00:00 12.8 5 Nordeste 11 Este 0 -- -- 41
2020-01-18 00:00:00 13 7 Nordeste 14 Nordeste 0 -- -- 33
2020-01-17 23:00:00 12.9 8 Norte 16 Nordeste 0 -- -- 41
2020-01-17 22:00:00 13.2 12 Nordeste 21 Nordeste 0 -- -- 42
2020-01-17 21:00:00 13 10 Nordeste 19 Nordeste 0 -- -- 50
2020-01-17 20:00:00 13.3 8 Nordeste 12 Nordeste 0 -- -- 50
2020-01-17 19:00:00 14.5 9 Norte 22 Nordeste 0 -- -- 46
2020-01-17 18:00:00 16 17 Nordeste 30 Este 0 -- -- 47
2020-01-17 17:00:00 17.3 18 Nordeste 27 Este 0 -- -- 51
2020-01-17 16:00:00 18.3 18 Nordeste 26 Nordeste 0 -- -- 52
2020-01-17 15:00:00 19.4 15 Este 24 Este 0 -- -- 48
2020-01-17 14:00:00 19.8 15 Este 25 Nordeste 0 -- -- 44
2020-01-17 13:00:00 19.6 17 Nordeste 28 Este 0 -- -- 40
2020-01-17 12:00:00 19.6 15 Nordeste 27 Este 0 -- -- 33
2020-01-17 11:00:00 18.3 17 Nordeste 30 Este 0 -- -- 36
2020-01-17 10:00:00 17.1 13 Nordeste 23 Este 0 -- -- 50
2020-01-17 09:00:00 14.3 9 Nordeste 18 Nordeste 0 -- -- 55
2020-01-17 08:00:00 12.4 9 Norte 20 Norte 0 -- -- 33
2020-01-17 07:00:00 12.7 9 Norte 19 Norte 0 -- -- 34
2020-01-17 06:00:00 13.3 10 Norte 24 Norte 0 -- -- 30
2020-01-17 05:00:00 13.9 13 Norte 28 Nordeste 0 -- -- 29
2020-01-17 04:00:00 14 19 Nordeste 27 Norte 0 -- -- 36
2020-01-17 03:00:00 13.8 13 Norte 21 Norte 0 -- -- 33
2020-01-17 02:00:00 14.2 14 Norte 23 Norte 0 -- -- 30
2020-01-17 01:00:00 14.3 14 Norte 23 Norte 0 -- -- 28
2020-01-17 00:00:00 14.5 15 Norte 24 Norte 0 -- -- 30
2020-01-16 23:00:00 14.1 13 Norte 23 Norte 0 -- -- 33
2020-01-16 22:00:00 13.9 12 Norte 21 Norte 0 -- -- 35
2020-01-16 21:00:00 13.4 5 Norte 13 Norte 0 -- -- 44
2020-01-16 20:00:00 13.7 9 Norte 13 Norte 0 -- -- 56
2020-01-16 19:00:00 14.5 4 Nordeste 13 Este 0 -- -- 73
2020-01-16 18:00:00 16.6 8 Este 14 Este 0 -- -- 60
2020-01-16 17:00:00 18.2 9 Este 15 Este 0 -- -- 43
2020-01-16 16:00:00 19.5 8 Este 17 Este 0 -- -- 41
2020-01-16 15:00:00 20.4 11 Este 22 Nordeste 0 -- -- 41
2020-01-16 14:00:00 20.1 12 Nordeste 19 Este 0 -- -- 39
2020-01-16 13:00:00 20.8 9 Este 18 Este 0 -- -- 31
2020-01-16 12:00:00 19.9 10 Este 19 Este 0 -- -- 36
2020-01-16 11:00:00 19.8 9 Este 15 Sudeste 0 -- -- 35
2020-01-16 10:00:00 18.3 5 Sudeste 12 Sudeste 0 -- -- 32
2020-01-16 09:00:00 14.3 8 Noroeste 13 Noroeste 0 -- -- 29
2020-01-16 08:00:00 12.6 6 Noroeste 13 Noroeste 0 -- -- 41
2020-01-16 07:00:00 13.4 11 Noroeste 15 Noroeste 0 -- -- 29
2020-01-16 06:00:00 13.6 9 Noroeste 18 Noroeste 0 -- -- 28
2020-01-16 05:00:00 14.1 13 Noroeste 21 Oeste 0 -- -- 27
2020-01-16 04:00:00 14.3 18 Oeste 25 Noroeste 0 -- -- 27
2020-01-16 03:00:00 13.9 16 Noroeste 26 Noroeste 0 -- -- 27
2020-01-16 02:00:00 13.8 16 Noroeste 23 Oeste 0 -- -- 28
2020-01-16 01:00:00 13.7 14 Noroeste 22 Noroeste 0 -- -- 32
2020-01-16 00:00:00 13.5 14 Noroeste 21 Noroeste 0 -- -- 30
2020-01-15 23:00:00 13.6 15 Noroeste 21 Oeste 0 -- -- 30
2020-01-15 22:00:00 13.4 12 Noroeste 19 Oeste 0 -- -- 32
2020-01-15 21:00:00 13.1 10 Noroeste 14 Noroeste 0 -- -- 40
2020-01-15 20:00:00 13 5 Oeste 8 Oeste 0 -- -- 61
2020-01-15 19:00:00 14.7 2 Sudoeste 7 Sudeste 0 -- -- 59
2020-01-15 18:00:00 16.9 5 Sudeste 14 Sudeste 0 -- -- 54
2020-01-15 17:00:00 18.4 9 Sudeste 16 Sudeste 0 -- -- 44
2020-01-15 16:00:00 19.3 10 Sudeste 22 Sudeste 0 -- -- 33
2020-01-15 15:00:00 20 11 Sudeste 25 Sur 0 -- -- 36
2020-01-15 14:00:00 20.3 12 Sur 26 Este 0 -- -- 26
2020-01-15 13:00:00 20.5 13 Sudeste 24 Sudeste 0 -- -- 29
2020-01-15 12:00:00 20.5 12 Sudeste 21 Sudeste 0 -- -- 27
2020-01-15 11:00:00 18.9 10 Sur 18 Sudeste 0 -- -- 33
2020-01-15 10:00:00 16.7 6 Sur 12 Sudoeste 0 -- -- 36
2020-01-15 09:00:00 14.1 9 Oeste 17 Noroeste 0 -- -- 31
2020-01-15 08:00:00 12.8 10 Noroeste 16 Noroeste 0 -- -- 32
2020-01-15 07:00:00 13.1 10 Oeste 17 Oeste 0 -- -- 32
2020-01-15 06:00:00 13.5 13 Noroeste 21 Oeste 0 -- -- 31
2020-01-15 05:00:00 13.6 13 Oeste 25 Oeste 0 -- -- 31
2020-01-15 04:00:00 13.4 18 Oeste 23 Noroeste 0 -- -- 29
2020-01-15 03:00:00 13.4 15 Noroeste 22 Noroeste 0 -- -- 28
2020-01-15 02:00:00 13 13 Noroeste 18 Noroeste 0 -- -- 31
2020-01-15 01:00:00 12.9 13 Noroeste 18 Noroeste 0 -- -- 33
2020-01-15 00:00:00 12.4 10 Noroeste 15 Noroeste 0 -- -- 36
2020-01-14 23:00:00 12.9 4 Sur 20 Noroeste 0 -- -- 45
2020-01-14 22:00:00 12.1 5 Oeste 12 Noroeste 0 -- -- 62
2020-01-14 21:00:00 12.6 7 Noroeste 10 Oeste 0 -- -- 68
2020-01-14 20:00:00 13.1 8 Noroeste 12 Noroeste 0 -- -- 70
2020-01-14 19:00:00 14.4 7 Sudoeste 13 Sur 0 -- -- 65
2020-01-14 18:00:00 15.7 9 Sur 19 Sur 0 -- -- 65
2020-01-14 17:00:00 17.5 14 Sur 24 Sudeste 0 -- -- 62
2020-01-14 16:00:00 19.3 14 Sur 26 Sudoeste 0 -- -- 45
2020-01-14 15:00:00 19.2 18 Sur 34 Sur 0 -- -- 38
2020-01-14 14:00:00 19.5 19 Sur 34 Sur 0 -- -- 40
2020-01-14 13:00:00 19.4 18 Sur 35 Sur 0 -- -- 44
2020-01-14 12:00:00 19.1 19 Sur 32 Sudeste 0 -- -- 51
2020-01-14 11:00:00 18.4 14 Sur 24 Sur 0 -- -- 57
2020-01-14 10:00:00 17.2 11 Sur 17 Sur 0 -- -- 59
2020-01-14 09:00:00 15.2 9 Sudoeste 20 Oeste 0 -- -- 42
2020-01-14 08:00:00 13.6 14 Oeste 20 Sudoeste 0 -- -- 41
2020-01-14 07:00:00 13.9 6 Sudoeste 15 Noroeste 0 -- -- 33
2020-01-14 06:00:00 14.6 10 Noroeste 21 Oeste 0 -- -- 30
2020-01-14 05:00:00 15 12 Oeste 25 Noroeste 0 -- -- 29
2020-01-14 04:00:00 15.5 16 Oeste 24 Oeste 0 -- -- 28
2020-01-14 03:00:00 15.6 19 Oeste 27 Oeste 0 -- -- 27
2020-01-14 02:00:00 15.7 18 Oeste 26 Oeste 0 -- -- 27
2020-01-14 01:00:00 15.3 15 Oeste 24 Oeste 0 -- -- 29
2020-01-14 00:00:00 15.1 17 Oeste 28 Oeste 0 -- -- 39
2020-01-13 23:00:00 14.7 15 Oeste 21 Noroeste 0 -- -- 43
2020-01-13 22:00:00 14.6 17 Noroeste 20 Noroeste 0 -- -- 47
2020-01-13 21:00:00 14 10 Noroeste 15 Oeste 0 -- -- 55
2020-01-13 20:00:00 13.6 5 Oeste 8 Oeste 0 -- -- 71
2020-01-13 19:00:00 15.1 3 Sudoeste 8 Sur 0 -- -- 73
2020-01-13 18:00:00 17 6 Sur 20 Sudeste 0 -- -- 66
2020-01-13 17:00:00 18.6 11 Sur 20 Sur 0 -- -- 62
2020-01-13 16:00:00 19.7 12 Sudeste 23 Sudeste 0 -- -- 57
2020-01-13 15:00:00 20.3 7 Sudeste 24 Sudeste 0 -- -- 53
2020-01-13 14:00:00 21.4 15 Sudeste 27 Sur 0 -- -- 46
2020-01-13 13:00:00 21.3 8 Este 17 Este 0 -- -- 43
2020-01-13 12:00:00 19.7 12 Este 19 Este 0 -- -- 62
2020-01-13 11:00:00 19.1 9 Este 16 Nordeste 0 -- -- 62
2020-01-13 10:00:00 16.6 8 Este 12 Este 0 -- -- 69
2020-01-13 09:00:00 13 2 Sudoeste 13 Nordeste 0 -- -- 63
2020-01-13 08:00:00 12.1 5 Este 8 Nordeste 0 -- -- 62
2020-01-13 07:00:00 12.4 3 Norte 12 Nordeste 0 -- -- 46
2020-01-13 06:00:00 12 7 Noroeste 14 Noroeste 0 -- -- 46
2020-01-13 05:00:00 12.2 5 Nordeste 18 Nordeste 0 -- -- 58
2020-01-13 04:00:00 12.5 7 Norte 14 Norte 0 -- -- 44
2020-01-13 03:00:00 12.8 5 Nordeste 17 Noroeste 0 -- -- 35
2020-01-13 02:00:00 12.3 9 Noroeste 14 Norte 0 -- -- 37
2020-01-13 01:00:00 12.4 4 Noroeste 19 Norte 0 -- -- 42
2020-01-13 00:00:00 11.8 9 Noroeste 21 Nordeste 0 -- -- 64
2020-01-12 23:00:00 12.5 10 Norte 18 Norte 0 -- -- 76
2020-01-12 22:00:00 13.6 9 Nordeste 27 Norte 0 -- -- 71
2020-01-12 21:00:00 13.7 17 Nordeste 33 Nordeste 0 -- -- 76
2020-01-12 20:00:00 14.1 18 Nordeste 35 Nordeste 0 -- -- 76
2020-01-12 19:00:00 14.7 17 Nordeste 28 Nordeste 0 -- -- 71
2020-01-12 18:00:00 15.1 15 Nordeste 31 Este 0 -- -- 79
2020-01-12 17:00:00 16.2 18 Nordeste 33 Este 0 -- -- 71
2020-01-12 16:00:00 16.5 17 Nordeste 31 Nordeste 0 -- -- 65
2020-01-12 15:00:00 16.6 18 Este 39 Nordeste 0 -- -- 64
2020-01-12 14:00:00 18.1 23 Nordeste 41 Este 0 -- -- 57
2020-01-12 13:00:00 17.9 26 Nordeste 44 Nordeste 0 -- -- 59
2020-01-12 12:00:00 16.3 23 Nordeste 43 Nordeste 0 -- -- 66
2020-01-12 11:00:00 16.4 30 Nordeste 41 Nordeste 0 -- -- 61
2020-01-12 10:00:00 14.8 20 Nordeste 43 Nordeste 0 -- -- 65
2020-01-12 09:00:00 14.1 20 Nordeste 39 Norte 0 -- -- 76
2020-01-12 08:00:00 13.9 19 Nordeste 48 Nordeste 0 -- -- 77
2020-01-12 07:00:00 14.1 25 Nordeste 45 Nordeste 0 -- -- 64
2020-01-12 06:00:00 13.7 25 Nordeste 45 Nordeste 0 -- -- 65
2020-01-12 05:00:00 13.1 15 Nordeste 30 Nordeste 0 -- -- 69
2020-01-12 04:00:00 13.1 13 Nordeste 29 Nordeste 0 -- -- 66
2020-01-12 03:00:00 13 9 Norte 25 Norte 0 -- -- 70
2020-01-12 02:00:00 13 7 Norte 32 Norte 0 -- -- 70
2020-01-12 01:00:00 13.2 14 Nordeste 27 Nordeste 0 -- -- 77
2020-01-12 00:00:00 13 7 Nordeste 23 Norte 0 -- -- 73
2020-01-11 23:00:00 13.6 16 Nordeste 31 Nordeste 0 -- -- 71
2020-01-11 22:00:00 13.9 9 Nordeste 30 Nordeste 0 -- -- 72
2020-01-11 21:00:00 13.9 15 Nordeste 31 Nordeste 0 -- -- 72
2020-01-11 20:00:00 14.4 17 Nordeste 32 Nordeste 0 -- -- 67
2020-01-11 19:00:00 14.5 21 Nordeste 39 Nordeste 0 -- -- 72
2020-01-11 18:00:00 14.9 19 Nordeste 39 Nordeste 0 -- -- 75
2020-01-11 17:00:00 16 20 Nordeste 54 Nordeste 0 -- -- 66
2020-01-11 16:00:00 16.5 20 Nordeste 42 Nordeste 0 -- -- 60
2020-01-11 15:00:00 16.5 23 Nordeste 37 Este 0 -- -- 66
2020-01-11 14:00:00 16.7 25 Nordeste 41 Nordeste 0 -- -- 66
2020-01-11 13:00:00 19 22 Nordeste 36 Este 0 -- -- 59
2020-01-11 12:00:00 18.2 18 Este 39 Nordeste 0 -- -- 62
2020-01-11 11:00:00 17.2 22 Nordeste 40 Nordeste 0 -- -- 58
2020-01-11 10:00:00 14.8 19 Nordeste 32 Nordeste 0 -- -- 72
2020-01-11 09:00:00 13 13 Norte 26 Nordeste 0 -- -- 74
2020-01-11 08:00:00 12.4 13 Norte 25 Norte 0 -- -- 76
2020-01-11 07:00:00 12.7 14 Norte 24 Norte 0 -- -- 78
2020-01-11 06:00:00 12.6 13 Norte 26 Norte 0 -- -- 79
2020-01-11 05:00:00 12.9 11 Norte 23 Nordeste 0 -- -- 80
2020-01-11 04:00:00 13 12 Norte 27 Nordeste 0 -- -- 81
2020-01-11 03:00:00 13.8 20 Nordeste 32 Norte 0 -- -- 84
2020-01-11 02:00:00 13.9 9 Norte 27 Este 0 -- -- 91
2020-01-11 01:00:00 14.5 14 Nordeste 30 Nordeste 0 -- -- 92
2020-01-11 00:00:00 14.2 13 Nordeste 28 Nordeste 0 -- -- 83
2020-01-10 23:00:00 13.7 9 Norte 30 Nordeste 0 -- -- 82
2020-01-10 22:00:00 14 13 Nordeste 27 Nordeste 0 -- -- 84
2020-01-10 21:00:00 14.6 19 Nordeste 37 Nordeste 0 -- -- 84
2020-01-10 20:00:00 14.8 18 Nordeste 30 Nordeste 0 -- -- 77
2020-01-10 19:00:00 15.1 16 Nordeste 42 Nordeste 0 -- -- 75
2020-01-10 18:00:00 15.9 25 Nordeste 56 Nordeste 0 -- -- 70
2020-01-10 17:00:00 16.6 30 Nordeste 53 Nordeste 0 -- -- 75
2020-01-10 16:00:00 16.9 27 Nordeste 62 Nordeste 0 -- -- 76
2020-01-10 15:00:00 17.6 30 Nordeste 46 Nordeste 0 -- -- 74
2020-01-10 14:00:00 17.1 28 Nordeste 48 Este 0 -- -- 73
2020-01-10 13:00:00 17.5 27 Nordeste 51 Nordeste 0 -- -- 77
2020-01-10 12:00:00 17.4 27 Nordeste 49 Nordeste 0 -- -- 75
2020-01-10 11:00:00 17.7 35 Nordeste 50 Este 0 -- -- 75
2020-01-10 10:00:00 16.9 29 Nordeste 49 Nordeste 0 -- -- 75
2020-01-10 09:00:00 14.7 19 Nordeste 44 Nordeste 0 -- -- 86
2020-01-10 08:00:00 14.3 24 Nordeste 46 Nordeste 0 -- -- 88
2020-01-10 07:00:00 14.6 26 Nordeste 48 Nordeste 0 -- -- 78
2020-01-10 06:00:00 15.1 22 Nordeste 55 Nordeste 0 -- -- 68
2020-01-10 05:00:00 14.3 27 Nordeste 51 Nordeste 0 -- -- 78
2020-01-10 04:00:00 14.1 21 Nordeste 40 Nordeste 0 -- -- 76
2020-01-10 03:00:00 14.3 20 Nordeste 42 Norte 0 -- -- 78
2020-01-10 02:00:00 14.8 26 Nordeste 60 Norte 0 -- -- 67
2020-01-10 01:00:00 14.5 27 Nordeste 55 Nordeste 0 -- -- 65
2020-01-10 00:00:00 14.1 28 Nordeste 54 Nordeste 0 -- -- 67
2020-01-09 23:00:00 14.3 29 Nordeste 51 Nordeste 0 -- -- 65
2020-01-09 22:00:00 14.3 23 Nordeste 45 Nordeste 0 -- -- 65
2020-01-09 21:00:00 14.5 23 Nordeste 53 Nordeste 0 -- -- 63
2020-01-09 20:00:00 14.5 25 Nordeste 40 Nordeste 0 -- -- 63
2020-01-09 19:00:00 14.8 21 Nordeste 48 Nordeste 0 -- -- 69
2020-01-09 18:00:00 15.4 27 Nordeste 46 Nordeste 0 -- -- 61
2020-01-09 17:00:00 16.9 20 Nordeste 45 Nordeste 0 -- -- 62
2020-01-09 16:00:00 17.6 24 Nordeste 47 Nordeste 0 -- -- 58
2020-01-09 15:00:00 18.4 27 Nordeste 50 Nordeste 0 -- -- 55
2020-01-09 14:00:00 18.7 28 Nordeste 51 Nordeste 0 -- -- 49
2020-01-09 13:00:00 18 30 Nordeste 55 Este 0 -- -- 56
2020-01-09 12:00:00 18.1 29 Nordeste 48 Nordeste 0 -- -- 54
2020-01-09 11:00:00 17.6 28 Nordeste 47 Nordeste 0 -- -- 51
2020-01-09 10:00:00 16.4 23 Nordeste 42 Nordeste 0 -- -- 59
2020-01-09 09:00:00 14.2 15 Nordeste 30 Nordeste 0 -- -- 68
2020-01-09 08:00:00 12.5 11 Nordeste 28 Nordeste 0 -- -- 72
2020-01-09 07:00:00 13.1 15 Nordeste 33 Nordeste 0 -- -- 79
2020-01-09 06:00:00 12.7 13 Nordeste 24 Norte 0 -- -- 77
2020-01-09 05:00:00 13 9 Nordeste 29 Nordeste 0 -- -- 78
2020-01-09 04:00:00 12.8 12 Nordeste 26 Nordeste 0 -- -- 65
2020-01-09 03:00:00 13.1 15 Nordeste 30 Nordeste 0 -- -- 69
2020-01-09 02:00:00 12.8 13 Nordeste 27 Norte 0 -- -- 65
2020-01-09 01:00:00 13.2 15 Nordeste 32 Este 0 -- -- 70
2020-01-09 00:00:00 13.5 17 Nordeste 32 Nordeste 0 -- -- 66
2020-01-08 23:00:00 12.5 9 Norte 28 Nordeste 0 -- -- 62
2020-01-08 22:00:00 12.6 10 Norte 17 Nordeste 0 -- -- 63
2020-01-08 21:00:00 12.5 7 Norte 13 Nordeste 0 -- -- 64
2020-01-08 20:00:00 13 6 Norte 14 Norte 0 -- -- 66
2020-01-08 19:00:00 14.2 11 Nordeste 29 Nordeste 0 -- -- 74
2020-01-08 18:00:00 15 17 Nordeste 41 Nordeste 0 -- -- 73
2020-01-08 17:00:00 16.1 21 Nordeste 40 Nordeste 0 -- -- 69
2020-01-08 16:00:00 17.7 23 Nordeste 39 Nordeste 0 -- -- 62
2020-01-08 15:00:00 18.1 27 Nordeste 44 Nordeste 0 -- -- 59
2020-01-08 14:00:00 18.3 26 Nordeste 41 Este 0 -- -- 60
2020-01-08 13:00:00 18.4 27 Nordeste 41 Este 0 -- -- 59
2020-01-08 12:00:00 18.3 24 Nordeste 42 Nordeste 0 -- -- 58
2020-01-08 11:00:00 16.9 25 Nordeste 46 Este 0 -- -- 65
2020-01-08 10:00:00 15 23 Nordeste 34 Nordeste 0 -- -- 69
2020-01-08 09:00:00 14.3 20 Nordeste 35 Norte 0 -- -- 73
2020-01-08 08:00:00 13.9 20 Nordeste 32 Norte 0 -- -- 73
2020-01-08 07:00:00 12.6 13 Nordeste 21 Nordeste 0 -- -- 69
2020-01-08 06:00:00 12.6 13 Nordeste 21 Nordeste 0 -- -- 65
2020-01-08 05:00:00 13.4 15 Nordeste 31 Nordeste 0 -- -- 61
2020-01-08 04:00:00 13.8 22 Nordeste 39 Nordeste 0 -- -- 56
2020-01-08 03:00:00 13.7 16 Nordeste 32 Nordeste 0 -- -- 42
2020-01-08 02:00:00 12.7 11 Nordeste 25 Nordeste 0 -- -- 57
2020-01-08 01:00:00 13.1 13 Nordeste 30 Nordeste 0 -- -- 65
2020-01-08 00:00:00 13.4 18 Nordeste 29 Nordeste 0 -- -- 60
2020-01-07 23:00:00 13.4 16 Nordeste 28 Nordeste 0 -- -- 65
2020-01-07 22:00:00 13.4 14 Nordeste 26 Nordeste 0 -- -- 64
2020-01-07 21:00:00 12.6 10 Norte 19 Nordeste 0 -- -- 56
2020-01-07 20:00:00 13.1 5 Norte 24 Nordeste 0 -- -- 71
2020-01-07 19:00:00 14.2 17 Nordeste 33 Nordeste 0 -- -- 74
2020-01-07 18:00:00 15.2 22 Nordeste 40 Nordeste 0 -- -- 72
2020-01-07 17:00:00 16.4 25 Nordeste 35 Nordeste 0 -- -- 64
2020-01-07 16:00:00 17.2 22 Nordeste 41 Este 0 -- -- 62
2020-01-07 15:00:00 17.5 26 Nordeste 42 Norte 0 -- -- 57
2020-01-07 14:00:00 17.2 23 Nordeste 37 Nordeste 0 -- -- 65
2020-01-07 13:00:00 16.8 22 Nordeste 36 Nordeste 0 -- -- 63
2020-01-07 12:00:00 15.7 22 Nordeste 40 Nordeste 0 -- -- 71
2020-01-07 11:00:00 15.1 20 Nordeste 39 Nordeste 0 -- -- 78
2020-01-07 10:00:00 14.6 24 Nordeste 39 Nordeste 0 -- -- 76
2020-01-07 09:00:00 13.5 17 Nordeste 41 Nordeste 0.2 -- -- 82
2020-01-07 08:00:00 14.3 23 Nordeste 44 Nordeste 0 -- -- 67
2020-01-07 07:00:00 14.5 25 Nordeste 42 Nordeste 0 -- -- 59
2020-01-07 06:00:00 13.5 11 Nordeste 35 Nordeste 0 -- -- 56
2020-01-07 05:00:00 14.2 28 Nordeste 57 Nordeste 0 -- -- 56
2020-01-07 04:00:00 14.3 31 Nordeste 50 Nordeste 0 -- -- 54
2020-01-07 03:00:00 15 31 Nordeste 57 Nordeste 0 -- -- 56
2020-01-07 02:00:00 14.7 19 Nordeste 33 Nordeste 0 -- -- 66
2020-01-07 01:00:00 15.1 22 Nordeste 44 Nordeste 0 -- -- 64
2020-01-07 00:00:00 13.8 23 Nordeste 39 Nordeste 0 -- -- 66
2020-01-06 23:00:00 13.7 11 Oeste 27 Oeste 0 -- -- 69
2020-01-06 22:00:00 13.6 2 Sudeste 17 Oeste 0 -- -- 73
2020-01-06 21:00:00 14.3 7 Sur 23 Sudeste 0 -- -- 79
2020-01-06 20:00:00 14.6 13 Oeste 18 Oeste 0 -- -- 62
2020-01-06 19:00:00 15.2 4 Oeste 28 Nordeste 0 -- -- 54
2020-01-06 18:00:00 16.6 16 Nordeste 30 Nordeste 0 -- -- 50
2020-01-06 17:00:00 18.1 16 Nordeste 41 Nordeste 0 -- -- 49
2020-01-06 16:00:00 18.5 21 Este 43 Este 0 -- -- 48
2020-01-06 15:00:00 18.3 28 Este 48 Este 0 -- -- 52
2020-01-06 14:00:00 18.9 27 Este 49 Este 0 -- -- 48
2020-01-06 13:00:00 18.6 28 Nordeste 53 Nordeste 0 -- -- 47
2020-01-06 12:00:00 18.2 32 Este 50 Este 0 -- -- 45
2020-01-06 11:00:00 17.9 25 Nordeste 41 Nordeste 0 -- -- 54
2020-01-06 10:00:00 16.8 20 Nordeste 35 Nordeste 0 -- -- 63
2020-01-06 09:00:00 14.3 15 Nordeste 26 Nordeste 0 -- -- 72